[[{"header":{"parameterUnit":"m.s-1","parameterCategory":1,"la1":30.2992,"la2":30.254,"lo1":-89.0895,"lo2":-89.0443,"dy":0.0025,"dx":0.0025,"nx":19,"ny":19,"refTime":"2026-03-09T21:00:00:Z","depth":0,"parameterNumber":2,"parameterNumberName":"U-component_of_WINDS"},"data":[0,0,0,-1.1651,-1.165,-1.1563,-1.1563,-1.146,-1.146,0,0,0,0,0,0,0,0,0,0,0,-1.1685,-1.1685,-1.1652,-1.165,-1.1563,-1.1563,-1.1461,-1.146,0,0,0,0,0,0,0,0,0,0,0,-1.1686,-1.1685,-1.1685,-1.1649,-1.1563,-1.1563,-1.1461,-1.1522,0,0,0,0,0,0,0,0,0,0,-1.1605,-1.1645,-1.1685,-1.1685,-1.1649,-1.1564,-1.1563,-1.1525,-1.1518,-1.1504,0,-1.1497,0,-1.1477,-1.1454,-1.1453,0,0,0,-1.1643,-1.1651,-1.162,-1.1685,-1.1648,-1.1564,-1.16,-1.1521,-1.1514,-1.1496,-1.1495,-1.1491,-1.1475,-1.1453,-1.1453,-1.14,-1.14,0,0,-1.1647,-1.1674,-1.1625,-1.1616,-1.1633,-1.1603,-1.1598,-1.1517,-1.1517,-1.1495,-1.1488,-1.1473,-1.1452,-1.1452,-1.14,-1.14,0,0,0,-1.1666,-1.1677,-1.1648,-1.162,-1.1604,-1.1601,-1.1595,-1.152,-1.1509,-1.1487,-1.1472,-1.1452,-1.1451,-1.14,-1.14,-1.1431,0,0,0,-1.1668,-1.1688,-1.1651,-1.1666,-1.1606,-1.1562,-1.16,-1.1514,-1.1504,-1.1473,-1.1452,-1.145,-1.14,-1.14,-1.143,-1.144,0,0,0,-1.1688,-1.169,-1.1681,-1.1668,-1.1632,-1.1563,-1.1546,-1.1512,-1.1496,-1.1453,-1.145,-1.14,-1.14,-1.1429,-1.1439,-1.1434,0,0,0,-1.1716,-1.1708,-1.1682,-1.1667,-1.1633,-1.1583,-1.1546,-1.1508,-1.1475,-1.1451,-1.14,-1.14,-1.1428,-1.1438,-1.1433,-1.1434,-1.1438,0,0,-1.1721,-1.171,-1.1699,-1.1673,-1.1635,-1.1594,-1.1559,-1.1503,-1.1474,-1.1426,-1.1424,-1.143,-1.1438,-1.1434,-1.1448,-1.1451,0,0,0,-1.1709,-1.1702,-1.1686,-1.1658,-1.1616,-1.158,-1.1527,-1.1506,-1.1464,-1.1456,-1.1426,-1.143,-1.1426,-1.1426,-1.1428,-1.1422,-1.1401,-1.1401,-1.1401,-1.1753,-1.1718,-1.1697,-1.1651,-1.1623,-1.1568,-1.1541,-1.1503,-1.1474,-1.1467,-1.1453,-1.1467,-1.1467,-1.1469,-1.1463,-1.1451,-1.1451,-1.1451,-1.1451,-1.1757,-1.174,-1.1702,-1.1669,-1.163,-1.16,-1.1546,-1.1526,-1.149,-1.1475,-1.1469,-1.1455,-1.1473,-1.1466,-1.1453,-1.1453,-1.1453,-1.1452,-1.1452,-1.1781,-1.1767,-1.1743,-1.1697,-1.1665,-1.1617,-1.1585,-1.155,-1.1517,-1.1511,-1.1491,-1.1491,-1.1485,-1.1504,-1.1504,-1.1505,-1.1505,-1.1505,-1.1505,-1.1816,-1.1788,-1.1767,-1.1722,-1.1698,-1.1662,-1.1606,-1.158,-1.1543,-1.152,-1.1519,-1.149,-1.1482,-1.1481,-1.1505,-1.1505,-1.1505,-1.1505,-1.1505,-1.1831,-1.1822,-1.179,-1.1767,-1.171,-1.1679,-1.1635,-1.1586,-1.156,-1.1545,-1.1516,-1.1517,-1.1502,-1.15,-1.1498,-1.1525,-1.1525,-1.1525,-1.1525,-1.1852,-1.1841,-1.18,-1.1764,-1.1725,-1.1682,-1.1643,-1.1599,-1.155,-1.1531,-1.1522,-1.1517,-1.1516,-1.1502,-1.1499,-1.1497,-1.1524,-1.1524,-1.1524,-1.1858,-1.1843,-1.1818,-1.1774,-1.1726,-1.1685,-1.1647,-1.1605,-1.1548,-1.1523,-1.1515,-1.1515,-1.1506,-1.1506,-1.1481,-1.1478,-1.1473,0,0]},{"header":{"parameterUnit":"m.s-1","parameterCategory":1,"la1":30.2992,"la2":30.254,"lo1":-89.0895,"lo2":-89.0443,"dy":0.0025,"dx":0.0025,"nx":19,"ny":19,"refTime":"2026-03-09T21:00:00:Z","depth":0,"parameterNumber":3,"parameterNumberName":"V-component_of_WINDS"},"data":[0,0,0,3.2878,3.2881,3.3066,3.3066,3.3296,3.3298,0,0,0,0,0,0,0,0,0,0,0,3.2818,3.2819,3.2877,3.2882,3.3066,3.3066,3.3296,3.3298,0,0,0,0,0,0,0,0,0,0,0,3.2817,3.2819,3.282,3.2882,3.3065,3.3067,3.3295,3.3159,0,0,0,0,0,0,0,0,0,0,3.2981,3.292,3.2818,3.282,3.2883,3.3065,3.3067,3.3152,3.3167,3.321,0,3.3244,0,3.3275,3.3313,3.3314,0,0,0,3.2886,3.2908,3.2962,3.2821,3.2885,3.3065,3.2984,3.3161,3.3178,3.3229,3.3248,3.3256,3.3278,3.3314,3.3315,3.3543,3.3544,0,0,3.2876,3.2848,3.295,3.2973,3.2942,3.2978,3.299,3.3171,3.319,3.3248,3.3262,3.3282,3.3316,3.3317,3.3542,3.3543,0,0,0,3.2844,3.2841,3.2891,3.2963,3.2996,3.2983,3.2997,3.3182,3.32,3.3264,3.3285,3.3317,3.332,3.3541,3.3542,3.3559,0,0,0,3.2838,3.2822,3.2886,3.2871,3.2993,3.3091,3.3003,3.3188,3.3209,3.3284,3.3317,3.3322,3.354,3.3542,3.3557,3.3572,0,0,0,3.2808,3.2819,3.2843,3.2869,3.2947,3.3089,3.3118,3.3193,3.3222,3.3314,3.3323,3.354,3.3541,3.3554,3.3568,3.3626,0,0,0,3.2767,3.2854,3.2843,3.2949,3.2946,3.3096,3.3117,3.3231,3.3312,3.3318,3.354,3.3542,3.3554,3.3566,3.3623,3.367,3.3686,0,0,3.2862,3.2865,3.2929,3.2925,3.307,3.3071,3.322,3.3321,3.3355,3.3479,3.3485,3.3557,3.3568,3.3625,3.3784,3.3796,0,0,0,3.295,3.2996,3.3041,3.3116,3.3195,3.3265,3.3345,3.3383,3.349,3.3412,3.3593,3.3601,3.3635,3.3659,3.367,3.3703,3.3551,3.3551,3.3551,3.3045,3.3084,3.3194,3.3256,3.333,3.3413,3.3477,3.3542,3.356,3.3602,3.364,3.3731,3.3758,3.3766,3.38,3.3666,3.3666,3.3666,3.3666,3.3189,3.3262,3.3284,3.3399,3.3441,3.3539,3.3623,3.3633,3.3732,3.3705,3.3738,3.3708,3.3779,3.3811,3.3668,3.3667,3.3667,3.3667,3.3667,3.3257,3.3299,3.3343,3.3458,3.3543,3.3603,3.3697,3.3732,3.3765,3.3797,3.3842,3.3842,3.3848,3.3815,3.3816,3.3816,3.3816,3.3817,3.3817,3.3311,3.336,3.3435,3.3527,3.3581,3.3658,3.3743,3.3798,3.3869,3.3887,3.3887,3.3903,3.3777,3.3746,3.3822,3.3821,3.382,3.382,3.382,3.3446,3.3422,3.3536,3.3591,3.3704,3.3787,3.383,3.394,3.3991,3.4037,3.4046,3.3946,3.3952,3.3944,3.3919,3.4034,3.4034,3.4035,3.4035,3.3506,3.3511,3.3639,3.3724,3.3812,3.3863,3.3995,3.4063,3.413,3.4164,3.4152,3.4121,3.4111,3.4123,3.4111,3.4088,3.4245,3.4245,3.4245,3.3593,3.3609,3.3714,3.3778,3.3869,3.3947,3.4073,3.4173,3.4243,3.4255,3.4193,3.4184,3.4134,3.4115,3.4127,3.4107,3.4066,0,0]}]]